Location: Amsterdam
(42.9386°N, 74.1886°W)
Time: 16:00:28
(UTC-04:00)

OTV 5 (USA 277) - Visible Passes

Search period start: 24 March 2019 00:00
Search period end: 03 April 2019 00:00
Orbit: 315 x 320 km, 54.5° (Epoch: 14 March)

Date Brightness Start Highest point End Pass type
(mag) Time Alt. Az. Time Alt. Az. Time Alt. Az.
31 Mar ? 05:41:20 10° S 05:43:19 18° SE 05:45:19 10° E visible
01 Apr ? 05:55:13 10° SW 05:57:52 52° SE 06:00:31 10° ENE visible
02 Apr ? 04:38:32 11° SE 04:38:33 11° SE 04:39:34 10° ESE visible
